#timestamp,LO_Frequency,Hit,StdDev 
1605769215.8,286046998.6,N
1605769235.6,286046998.4,N
1605769255.5,286046998.5,N
1605769275.3,286046998.4,N
1605769295.2,286046998.6,N
1605769315.9,286046998.2,N
1605769335.7,286047000.3,N
1605769355.6,286047000.3,N
1605769375.4,286047001.1,N
1605769395.3,286047001.2,N
1605769415.1,286047000.5,N
1605769416.0,286047000.5,N
1605769435.8,286047001.2,N
1605769455.7,286047001.0,N
1605769475.5,286047000.9,N
1605769495.4,286047000.6,N
1605769515.2,286046998.1,N
1605769535.0,286047001.0,N
1605769535.9,286047001.0,N
1605769555.8,286047001.0,N
1605769575.6,286047001.0,N
1605769595.4,286047000.3,N
1605769615.3,286047000.3,N
1605769635.1,286046999.9,N
1605769655.9,286047000.4,N
1605769675.7,286047002.7,N
1605769695.5,286047002.6,N
1605769715.4,286047000.3,N
1605769735.2,286047002.6,N
1605769755.1,286047002.5,N
1605769756.0,286047002.5,N
1605769775.8,286047001.3,N
1605769795.6,286047001.9,N
1605769815.5,286047001.5,N
1605769835.3,286047002.2,N
1605769855.2,286047001.4,N
1605769875.9,286047004.1,Y
1605769895.7,286047001.6,P
1605769915.6,286047004.3,P
1605769935.4,286047001.3,N
1605769955.3,286047003.9,N
1605769975.1,286047003.9,N
1605769976.0,286047003.9,N
1605769995.8,286047004.1,Y
1605770015.7,286047002.6,P
1605770035.5,286046999.8,N
1605770055.4,286047002.0,N
1605770075.2,286047002.4,N
1605770095.0,286047001.9,N
1605770095.9,286047001.9,N
1605770115.8,286047002.5,N
1605770135.6,286047001.9,N
1605770155.4,286047001.7,N
1605770175.3,286047004.4,Y
1605770195.1,286047002.6,P
1605770215.9,286047000.2,N
1605770235.7,286047000.1,N
1605770255.5,286047002.8,N
1605770275.4,286046999.7,N
1605770295.2,286047002.7,N
1605770315.1,286047002.6,N
1605770316.0,286047002.6,N
1605770335.8,286047001.6,N
1605770355.6,286047002.4,N
1605770375.5,286047001.8,N
1605770395.3,286047001.8,N
1605770415.1,286047004.4,Y
1605770435.9,286047000.6,P
1605770455.7,286046999.7,N
1605770475.6,286047002.7,P
1605770495.4,286047002.6,N
1605770515.2,286047002.1,N
1605770535.1,286047002.4,N
1605770536.0,286047002.4,N
1605770555.8,286047001.6,N
1605770575.7,286047001.9,N
1605770595.5,286047002.2,N
1605770615.3,286047002.1,N
1605770635.2,286047001.5,N
1605770655.0,286047001.5,N
1605770655.9,286047001.5,N
1605770675.8,286047002.0,N
1605770695.6,286047001.5,N
1605770715.4,286047001.8,N
1605770735.3,286047001.3,N
1605770755.1,286047004.3,Y
1605770775.9,286047002.2,P
1605770795.7,286047000.0,N
1605770815.5,286047000.2,N
1605770835.4,286047002.3,N
1605770855.2,286047002.8,N
1605770875.0,286047000.0,N
1605770875.9,286047000.0,N
1605770895.8,286047000.1,N
1605770945.6,286047002.1,E
1605770955.5,286047002.7,N
1605770975.4,286047000.9,P
1605770995.2,286046998.5,N
1605771015.1,286047000.7,N
1605771016.0,286047000.7,N
1605771035.8,286047000.5,N
1605771055.6,286047000.9,N
1605771075.5,286046999.9,N
1605771095.3,286047000.8,N
1605771115.2,286047000.3,N
1605771135.9,286047000.4,N
1605771155.7,286046998.5,N
1605771175.6,286047001.1,N
1605771195.4,286047000.9,N
1605771215.2,286047000.9,N
1605771235.1,286047000.9,N
1605771236.0,286047000.9,N
1605771255.8,286047000.8,N
1605771275.7,286047001.2,N
1605771295.5,286047000.9,N
1605771315.3,286046999.9,N
1605771335.2,286047000.4,N
1605771355.0,286047000.2,N
1605771355.9,286047000.2,N
1605771375.8,286047000.4,N
1605771395.6,286047000.4,N
1605771415.4,286047000.4,N
1605771435.3,286047000.5,N
1605771455.1,286046999.9,N
1605771475.9,286047000.4,N
1605771495.7,286047000.4,N
1605771515.5,286047000.5,N
1605771535.4,286047000.6,N
1605771555.2,286047000.5,N
1605771575.0,286047001.0,N
1605771576.0,286047001.0,N
1605771595.8,286047001.0,N
1605771615.6,286047001.1,N
1605771635.5,286047000.4,N
1605771655.3,286047000.1,N
1605771675.1,286047002.5,Y
1605771695.9,286047002.2,P
1605771715.7,286047001.7,N
1605771735.6,286047003.2,P
1605771755.4,286047005.5,Y
1605771775.2,286047002.8,P
1605771795.1,286047000.3,N
1605771796.0,286047000.3,N
1605771815.8,286047000.8,N
1605771835.7,286047001.2,N
1605771855.5,286047001.2,N
1605771875.3,286047001.1,N
1605771895.2,286047000.2,N
1605771915.0,286047002.7,Y
1605771915.9,286047002.7,P
1605771935.8,286047000.4,N
1605771955.6,286047000.1,N
1605771975.4,286047002.4,N
1605771995.3,286047000.4,N
1605772015.1,286047000.6,N
1605772035.8,286047000.8,N
1605772055.7,286046998.8,N
1605772075.5,286046999.3,N
1605772095.4,286046999.0,N
1605772115.2,286046998.8,N
1605772135.0,286046998.9,N
1605772135.9,286046998.9,N
1605772155.8,286046998.4,N
1605772175.6,286046998.2,N
1605772195.5,286046998.1,N
1605772215.3,286046998.4,N
1605772235.1,286046998.9,N
1605772255.9,286046999.1,N
1605772275.7,286046998.8,N
1605772295.5,286046998.6,N
1605772315.4,286046998.6,N
1605772335.2,286046999.3,N
1605772355.1,286046999.1,N
1605772356.0,286046999.1,N
1605772375.8,286046998.7,N
1605772395.6,286046998.9,N
1605772415.5,286046998.6,N
1605772435.3,286046998.8,N
1605772455.2,286046999.1,N
1605772475.9,286046999.1,N
1605772495.7,286046998.9,N
1605772515.6,286046998.5,N
1605772535.4,286047000.7,N
1605772555.3,286046999.0,N
1605772575.1,286046999.4,N
1605772576.0,286046999.4,N
1605772595.8,286046999.0,N
1605772615.7,286046998.9,N
1605772635.5,286046999.3,N
1605772655.4,286046999.1,N
1605772675.2,286046999.3,N
1605772695.0,286046999.0,N
1605772695.9,286046999.0,N
1605772715.8,286046998.9,N
1605772735.6,286046998.4,Y
1605772755.4,286046998.5,P
1605772775.3,286046998.1,P
1605772795.1,286046998.5,P
